RH
76 79 77 72 64 57 54 52 51 49 50 54 54 54 51 48 50 47 45 42 38 39
82 79 74 67 62 58 55 53 48 50 54 57 58 56 51 52 48 46 44 39 35 36
80 77 74 66 62 57 51 51 53 56 57 59 59 54 54 51 48 44 40 37 35 34
76 77 69 66 60 54 53 55 56 58 60 62 57 55 55 51 46 42 39 37 36 33
75 70 71 65 59 57 57 57 60 62 64 62 57 60 55 47 44 41 40 38 35 30
70 74 70 65 60 59 60 63 66 65 64 61 61 57 50 45 43 42 40 37 34 31
74 73 67 61 61 62 64 67 68 68 65 60 57 54 47 46 40 38 37 33 32 31
75 71 65 63 62 65 68 71 70 68 63 60 56 54 44 41 39 37 33 28 26 27
75 69 65 63 66 70 73 71 71 69 64 61 57 49 43 41 39 35 30 25 23 18
73 68 64 67 73 74 74 77 74 66 61 59 55 47 44 40 36 29 21 20 18 17
72 68 70 75 77 76 78 78 73 62 55 51 48 46 41 32 26 23 21 21 21 19
72 73 79 80 78 81 82 71 59 55 53 49 46 34 30 28 25 22 21 18 16 14
75 81 83 82 80 79 74 58 56 54 47 40 39 32 30 27 24 22 18 14 12 11
86 86 82 80 80 75 63 58 55 46 42 39 34 32 30 28 26 20 15 13 11 12